Torna al catalogo

STARLINK-32609

AttivoComunicazioniVLEO
NORAD 61929·PAYLOAD·🇺🇸 United States

Lanciato Nov 11, 2024 da Cape Canaveral Space Force Station

Loading…

Prossimi Passaggi (prossime 24 ore)

TLE

AggiornatoSource: CelesTrak SupGP

Epoca: Sep 14, 2026, 21:15 UTC

1 61929C 24207T   26257.88590278 -.00006891  00000+0 -24959-3 0  2575
2 61929  43.0003 293.1623 0001559 268.3490 259.5619 15.27582731    16

Traccia STARLINK-32609 in tempo reale con AllMySat

Download on the App Store